Location: Edinburgh
(55.9500°N, 3.1600°W)
Time: 01:24:36
(UTC+01:00)

AO-91 - Pass Details

Date: 29 May 2024
Orbit: 442 x 732 km, 97.6° (Epoch: 21 June)

Event Time Altitude Azimuth Distance (km) Brightness Sun altitude
Rises 00:25:59 0° 7° (N) 2,885 ? -11.8°
Reaches altitude 10° 00:28:24 10° 354° (N) 2,027 ? -11.9°
Maximum altitude 00:31:59 25° 301° (WNW) 1,355 ? -12.0°
Drops below altitude 10° 00:35:46 10° 247° (WSW) 2,145 ? -12.0°
Sets 00:38:24 0° 235° (SW) 3,095 ? -12.1°
